AirNav   Air Wisconsin pilot careers
 
 296 users online  

07R Bishop Municipal Airport
Bishop, Texas, USA

GOING TO BISHOP?


FAA INFORMATION EFFECTIVE 04 JANUARY 2018

Location

FAA Identifier: 07R
Lat/Long: 27-36-36.6000N / 097-45-09.1000W
27-36.610000N / 097-45.151667W
27.6101667 / -97.7525278
(estimated)
Elevation: 55 ft. / 17 m (estimated)
Variation: 07E (1985)
From city: 3 miles NE of BISHOP, TX
Time zone: UTC -6 (UTC -5 during Daylight Saving Time)
Zip code: 78343

Airport Operations

Airport use: Open to the public
Activation date: 08/1949
Control tower: no
ARTCC: HOUSTON CENTER
FSS: SAN ANGELO FLIGHT SERVICE STATION
NOTAMs facility: SJT (NOTAM-D service available)
Attendance: UNATNDD
Wind indicator: yes
Segmented circle: yes
Lights: SS-SR
Beacon: white-green (lighted land airport)
Operates sunset to sunrise.

Airport Communications

CTAF: 122.9
WX AWOS-3 at RBO (11 nm N): 118.175 (361-767-1982)
WX AWOS-3P at IKG (15 nm W): 119.075 (361-592-9152)
WX ASOS at CRP (16 nm NE): PHONE 361-289-0191
WX ASOS at ALI (17 nm NW): 119.225 (361-668-0069)

Nearby radio navigation aids

VOR radial/distance  VOR name  Freq  Var
ALIr113/(16.3)ALICE VOR114.5006E
CRPr214/24.0CORPUS CHRISTI VORTAC115.5009E
NGPr253/24.8TRUAX VORTAC114.0006E

Airport Services

Parking: tiedowns

Runway Information

Runway 15/33

Dimensions: 3200 x 50 ft. / 975 x 15 m
Surface: asphalt, in good condition
Weight bearing capacity: 
Single wheel: 12.5
Runway edge lights: medium intensity
RUNWAY 15  RUNWAY 33
Latitude: 27-36.843802N27-36.375995N
Longitude: 097-45.289173W097-45.013740W
Elevation: 53.0 ft.51.0 ft.
Gradient: 0.1%0.1%
Traffic pattern: leftleft
Runway heading: 145 magnetic, 152 true325 magnetic, 332 true
Markings: basic, in good conditionbasic, in good condition
Obstructions: 15 ft. road, 519 ft. from runway, 155 ft. left of centerline, 21:1 slope to clear15 ft. road, 600 ft. from runway, 165 ft. right of centerline, 26:1 slope to clear

Airport Ownership and Management from official FAA records

Ownership: Publicly-owned
Owner: CITY OF BISHOP
PO BOX 356
BISHOP, TX 78343
Phone 361-584-2567
Manager: CHARLIE MICHALK
PO BOX 356
BISHOP, TX 78343
Phone 361-443-9879
PRESIDENT OF THE AIRPORT ADVISORY BOARD.

Airport Operational Statistics

Aircraft based on the field: 24
Single engine airplanes: 23
Multi engine airplanes: 1
    
Aircraft operations: avg 23/week *
83% local general aviation
17% transient general aviation
* for 12-month period ending 09 March 2017

Additional Remarks

RY 15/33 INTENSIVE JET TFC 1300' & ABOVE; CTC NQI A/C FOR INSTRUCTIONS.

Instrument Procedures

There are no published instrument procedures at 07R.

Some nearby airports with instrument procedures:

KNQI - Kingsville Naval Air Station (7 nm SW)
KRBO - Nueces County Airport (11 nm N)
KIKG - Kleberg County Airport (15 nm W)
KCRP - Corpus Christi International Airport (16 nm NE)
KALI - Alice International Airport (17 nm NW)
 
Loc | Ops | Rwys | IFR | FBO | Links
Com | Nav | Svcs | Stats | Notes


 
Area around 07R (Bishop Municipal Airport)
 
Road maps at: MapQuest Bing Google
 
Aerial photo
WARNING: Photo may not be current or correct
Aerial photo of 07R (Bishop Municipal Airport)
Do you have a better or more recent aerial photo of Bishop Municipal Airport that you would like to share? If so, please send us your photo.

 
Sectional chart

 
Airport distance calculator
Flying to Bishop Municipal Airport? Find the distance to fly.

From to 07R

Sunrise and sunset
Times for 23-Jan-2018
 Local
(UTC-6)
 Zulu
(UTC)
Morning civil twilight06:5712:57
Sunrise07:2213:22
Sunset18:0400:04
Evening civil twilight18:2800:28

Current date and time
Zulu (UTC)  23-Jan-2018 09:04:05
Local (UTC-6)  23-Jan-2018 03:04:05
 
METAR
KNQI 
7nm SW 
230856Z AUTO 32007KT 10SM CLR 06/00 A3020 RMK AO2 SLP222 T00560000 50004 $
KRBO 
11nm N 
230855Z AUTO 34004KT 10SM CLR 05/M02 A3021 RMK AO2 T00481016
KIKG 
15nm W 
230855Z AUTO 31003KT 10SM CLR 06/01 A3021 RMK AO2 T00610012
KALI 
16nm NW 
230853Z AUTO 33004KT 10SM CLR 05/M02 A3020 RMK AO2 SLP226 T00501017 53004
KCRP 
16nm NE 
230851Z 34004KT 10SM OVC250 05/M01 A3020 RMK AO2 SLP225 T00501011 51005 $
TAF
KNQI 
7nm SW 
2307/2407 36005KT 9999 BKN250 QNH3015INS TEMPO 2307/2310 VRB04KT FM231400 02006KT 9999 FEW180 BKN250 QNH3020INS FM231800 07009KT 9999 FEW180 BKN250 QNH3024INS FM232300 09010KT 9999 BKN250 QNH3023INS FM240500 05007KT 9999 SCT250 QNH3028INS AUTOMATED SENSOR METWATCH 2307 TIL 2312 T10/2312Z T19/2321Z FN00149
KALI 
16nm NW 
230524Z 2306/2406 01004KT P6SM BKN250 FM232000 08008KT P6SM SCT250
KCRP 
16nm NE 
230524Z 2306/2406 04004KT P6SM BKN250 FM231900 08011KT P6SM SCT250
NOTAMs
Click for the latest NOTAMs
NOTAMs are issued by the DoD/FAA and will open in a separate window not controlled by AirNav.

 

 
 

FBO, Fuel Providers, and Aircraft Ground Support

  
 Business Name 
 
 Contact 
 
 Services / Description 
 
Fuel Prices
 
Comments
  
Bishop Airport 361-595-5382
no information available

If you are affiliated with Bishop Airport and would like to show here your services, contact info, web link, logo, and more, click here
100LL
AS $3.90 
 Updated 04-Jan-2017
 
   write
AS=Assisted/Self Service
Update Fuel Prices
 

Would you like to see your business listed on this page?

 If your business provides an interesting product or service to pilots, flight crews, aircraft, or users of the Bishop Municipal Airport, you should consider listing it here.  To start the listing process, click on the button below
 
Add a business
 

Other Pages about Bishop Municipal Airport

Update a link
 
Copyright © AirNav, LLC. All rights reserved. Privacy Policy  Contact